This demonstration page uses our WeatherBlox Daily Observations layout. Learn more.

Left ArrowRight Arrow

38.80484, -77.04692

Hourly Observations for May 24, 2015

Temp ( °F °C ) Dew Point ( °F °C ) Humidity (%) Winds ( mph kmh ) Pressure ( in mb ) Visibility ( mi km ) Precip ( " mm )
12:52 am 00:52 Clear 61 16.1 45 7.2 56 56 SSW 9 15 30.39 1029 10 16 N/A
1:52 am 01:52 Clear 61 16.1 44 6.7 54 54 SSW 10 17 30.38 1029 10 16 N/A
2:52 am 02:52 Mostly Clear 60 15.6 45 7.2 58 58 S 7 11 30.38 1029 10 16 N/A
3:52 am 03:52 Mostly Clear 59 15 45 7.2 60 60 SW 3 6 30.38 1029 10 16 N/A
4:52 am 04:52 Mostly Clear 58 14.4 47 8.3 67 67 SSW 3 6 30.38 1029 10 16 N/A
5:52 am 05:52 Partly Cloudy 58 14.4 50 10 75 75 SSW 5 7 30.39 1029 10 16 N/A
6:52 am 06:52 Partly Cloudy 60 15.6 51 10.6 72 72 SSE 5 7 30.40 1029 10 16 N/A
7:52 am 07:52 Partly Cloudy 63 17.2 52 11.1 68 68 SSW 8 13 30.40 1030 10 16 N/A
8:52 am 08:52 Sunny 66 18.9 53 11.7 63 63 SSW 7 11 30.40 1030 10 16 N/A
9:52 am 09:52 Mostly Sunny 68 20 55 12.8 63 63 SSE 9 15 30.39 1029 10 16 N/A
10:52 am 10:52 Partly Cloudy 71 21.7 56 13.3 59 59 SSE 8 13 30.38 1029 10 16 N/A
11:52 am 11:52 Partly Cloudy 74 23.3 57 13.9 56 56 S 8 13 30.35 1028 10 16 N/A
12:52 pm 12:52 Mostly Cloudy 77 25 58 14.4 52 52 SSE 9 15 30.35 1028 10 16 N/A
1:52 pm 13:52 Mostly Cloudy 79 26.1 59 15 50 50 SSE 9 15 30.32 1027 10 16 N/A
2:52 pm 14:52 Partly Cloudy 80 26.7 60 15.6 51 51 S 10 17 30.31 1026 10 16 N/A
3:52 pm 15:52 Partly Cloudy 82 27.8 59 15 46 46 SSE 12 19 30.28 1025 10 16 N/A
4:52 pm 16:52 Partly Cloudy 81 27.2 58 14.4 45 45 SSE 12 19 30.26 1025 10 16 N/A
5:52 pm 17:52 Partly Cloudy 81 27.2 59 15 47 47 S 10 17 30.25 1024 10 16 N/A
6:52 pm 18:52 Partly Cloudy 80 26.7 58 14.4 47 47 S 9 15 30.24 1024 10 16 N/A
7:52 pm 19:52 Partly Cloudy 77 25 61 16.1 58 58 S 7 11 30.25 1024 10 16 N/A
8:52 pm 20:52 Partly Cloudy 76 24.4 62 16.7 62 62 S 8 13 30.25 1024 10 16 N/A
9:52 pm 21:52 Partly Cloudy 74 23.3 61 16.1 64 64 S 8 13 30.27 1025 10 16 N/A
10:52 pm 22:52 Mostly Cloudy 72 22.2 60 15.6 66 66 S 8 13 30.27 1025 10 16 N/A
11:52 pm 23:52 Mostly Cloudy 72 22.2 58 14.4 61 61 S 8 13 30.27 1025 10 16 N/A

Powered by AerisWeather